{"data":{"norad_id":57151,"intl_designator":"2023-090BC","name":"STARLINK-5776","alt_names":[],"object_type":"PAYLOAD","status":"ACTIVE","operator":null,"country":"US","launch_date":"2023-06-23","launch_site_code":"AFETR","launch_vehicle":null,"mission":null,"orbit_class":"UNKNOWN","rcs_meters":null,"size_class":null,"mass_kg":null,"dimensions":null,"purposes":["comms"],"wikipedia_slug":null,"has_3d_model":false,"image_url":null,"decayed_at":null,"tle_current":{"epoch":"2026-05-25T04:49:20.659584Z","epoch_age_seconds":50998,"freshness":"FRESH","line1":"1 57151U 23090BC  26145.20093356  .00526705  00000+0  17269-1 0  9999","line2":"2 57151  43.0017 191.3324 0002078 253.2408 106.8216 15.28614219162248","mean_motion":15.28614219,"eccentricity":0.0002078,"inclination_deg":43.0017,"raan_deg":191.3324,"arg_perigee_deg":253.2408,"mean_anomaly_deg":106.8216,"bstar":0.017269,"rev_number":16224,"period_min":94.202970383334,"perigee_km":478.52890713556,"apogee_km":481.37912976283,"semimajor_km":6858.0910184492,"source":"CELESTRAK","updated_at":"2026-05-25T13:38:18.250068Z"}}}